QPF
0.09 0.07 0.06 0.07 0.06 0.09 0.08 0.08 0.13 0.12 0.10 0.10 0.10 0.09 0.07 0.07 0.08 0.06 0.04 0.03 0.03 0.05 0.08 0.10 0.10 0.11 0.10 0.08 0.08 0.07 0.07 0.06 0.05 0.06 0.07 0.08 0.08 0.07 0.06 0.05 0.05 0.05 0.04
0.08 0.08 0.07 0.06 0.06 0.08 0.09 0.09 0.09 0.08 0.07 0.07 0.07 0.07 0.06 0.07 0.06 0.06 0.06 0.05 0.04 0.05 0.08 0.11 0.14 0.16 0.13 0.11 0.11 0.11 0.11 0.10 0.08 0.07 0.07 0.06 0.08 0.09 0.08 0.08 0.08 0.08 0.07
0.07 0.07 0.06 0.06 0.07 0.08 0.08 0.08 0.06 0.05 0.05 0.05 0.06 0.07 0.05 0.05 0.06 0.07 0.06 0.04 0.04 0.05 0.07 0.08 0.11 0.14 0.13 0.15 0.17 0.18 0.16 0.12 0.09 0.07 0.07 0.06 0.07 0.08 0.07 0.06 0.07 0.08 0.10
0.04 0.04 0.06 0.08 0.09 0.09 0.08 0.07 0.06 0.05 0.05 0.06 0.07 0.08 0.06 0.07 0.07 0.06 0.06 0.04 0.03 0.03 0.04 0.05 0.07 0.11 0.13 0.13 0.18 0.21 0.18 0.12 0.10 0.10 0.10 0.09 0.07 0.07 0.08 0.06 0.05 0.06 0.08
0.01 0.02 0.05 0.07 0.09 0.10 0.09 0.08 0.09 0.10 0.10 0.09 0.08 0.07 0.08 0.10 0.09 0.07 0.06 0.04 0.03 0.04 0.05 0.06 0.06 0.06 0.10 0.09 0.10 0.13 0.14 0.11 0.10 0.09 0.09 0.08 0.07 0.06 0.07 0.08 0.06 0.05 0.06
0.03 0.03 0.04 0.05 0.05 0.07 0.09 0.11 0.12 0.10 0.10 0.10 0.08 0.10 0.10 0.11 0.10 0.09 0.07 0.06 0.06 0.05 0.05 0.05 0.07 0.07 0.06 0.07 0.07 0.09 0.13 0.13 0.10 0.07 0.06 0.07 0.07 0.07 0.07 0.07 0.05 0.04 0.04
0.04 0.04 0.03 0.05 0.05 0.06 0.08 0.11 0.11 0.07 0.07 0.07 0.08 0.09 0.10 0.10 0.10 0.10 0.08 0.06 0.06 0.05 0.04 0.06 0.08 0.09 0.07 0.06 0.06 0.08 0.10 0.12 0.09 0.06 0.06 0.07 0.08 0.08 0.07 0.07 0.05 0.05 0.04
0.04 0.05 0.07 0.08 0.08 0.08 0.07 0.08 0.08 0.07 0.06 0.06 0.06 0.09 0.09 0.09 0.09 0.09 0.08 0.07 0.06 0.05 0.03 0.03 0.05 0.06 0.07 0.07 0.06 0.05 0.07 0.11 0.12 0.10 0.07 0.05 0.05 0.05 0.05 0.05 0.05 0.05 0.05
0.04 0.06 0.07 0.09 0.12 0.09 0.07 0.07 0.07 0.08 0.06 0.05 0.06 0.08 0.08 0.08 0.08 0.09 0.09 0.08 0.08 0.06 0.04 0.03 0.03 0.03 0.04 0.07 0.05 0.05 0.06 0.09 0.12 0.11 0.08 0.06 0.06 0.05 0.05 0.05 0.06 0.07 0.07
0.03 0.03 0.05 0.07 0.09 0.09 0.07 0.05 0.07 0.09 0.08 0.07 0.06 0.08 0.08 0.08 0.08 0.08 0.09 0.08 0.07 0.05 0.04 0.03 0.02 0.03 0.04 0.06 0.05 0.04 0.06 0.07 0.09 0.11 0.09 0.06 0.06 0.05 0.04 0.04 0.08 0.09 0.08
0.03 0.03 0.04 0.06 0.06 0.06 0.07 0.06 0.06 0.07 0.07 0.08 0.07 0.07 0.08 0.08 0.07 0.07 0.08 0.07 0.06 0.04 0.03 0.03 0.02 0.03 0.05 0.06 0.04 0.05 0.04 0.05 0.07 0.08 0.08 0.07 0.06 0.05 0.04 0.04 0.05 0.06 0.06
0.03 0.04 0.04 0.04 0.05 0.06 0.06 0.05 0.06 0.06 0.06 0.06 0.06 0.07 0.07 0.08 0.09 0.09 0.08 0.08 0.08 0.06 0.04 0.02 0.02 0.02 0.03 0.04 0.04 0.06 0.03 0.03 0.04 0.05 0.06 0.06 0.07 0.07 0.06 0.06 0.07 0.06 0.06
0.04 0.03 0.03 0.04 0.05 0.06 0.06 0.06 0.06 0.06 0.06 0.05 0.06 0.06 0.06 0.06 0.07 0.09 0.09 0.08 0.07 0.06 0.05 0.03 0.03 0.03 0.02 0.04 0.04 0.05 0.06 0.05 0.05 0.06 0.07 0.08 0.09 0.11 0.12 0.13 0.12 0.12 0.11
0.03 0.03 0.03 0.04 0.05 0.06 0.05 0.06 0.06 0.05 0.04 0.04 0.05 0.06 0.05 0.07 0.07 0.07 0.08 0.09 0.07 0.05 0.05 0.05 0.05 0.04 0.03 0.05 0.05 0.06 0.05 0.03 0.04 0.04 0.04 0.04 0.04 0.06 0.09 0.11 0.11 0.12 0.12
0.03 0.03 0.04 0.04 0.05 0.06 0.06 0.06 0.05 0.04 0.04 0.04 0.04 0.06 0.07 0.07 0.07 0.07 0.09 0.10 0.10 0.07 0.05 0.05 0.05 0.05 0.05 0.04 0.04 0.04 0.04 0.02 0.03 0.02 0.03 0.02 0.02 0.03 0.04 0.05 0.04 0.04 0.04
0.01 0.02 0.02 0.02 0.04 0.04 0.04 0.04 0.04 0.04 0.05 0.05 0.05 0.05 0.04 0.05 0.05 0.04 0.05 0.06 0.07 0.09 0.07 0.05 0.05 0.05 0.04 0.03 0.02 0.03 0.03 0.03 0.02 0.01 0.01 0.02 0.02 0.02 0.02 0.03 0.03 0.02 0.02
0.01 0.02 0.02 0.03 0.05 0.04 0.04 0.05 0.04 0.04 0.04 0.05 0.04 0.04 0.04 0.04 0.03 0.03 0.03 0.03 0.03 0.04 0.05 0.05 0.05 0.05 0.03 0.02 0.02 0.02 0.03 0.03 0.03 0.02 0.01 0.01 0.01 0.01 0.01 0.02 0.02 0.02 0.02
0.02 0.02 0.03 0.03 0.04 0.05 0.05 0.05 0.04 0.04 0.04 0.05 0.05 0.06 0.04 0.02 0.02 0.03 0.04 0.04 0.04 0.04 0.04 0.05 0.06 0.04 0.04 0.05 0.04 0.03 0.03 0.04 0.03 0.03 0.02 0.02 0.02 0.02 0.02 0.03 0.03 0.02 0.02
0.03 0.03 0.03 0.03 0.03 0.04 0.05 0.05 0.04 0.03 0.04 0.04 0.03 0.05 0.04 0.04 0.04 0.04 0.05 0.05 0.06 0.05 0.05 0.05 0.04 0.05 0.04 0.05 0.05 0.04 0.05 0.04 0.03 0.03 0.03 0.04 0.04 0.04 0.03 0.03 0.02 0.02 0.02
0.05 0.05 0.04 0.03 0.02 0.03 0.03 0.03 0.03 0.03 0.03 0.03 0.02 0.03 0.03 0.04 0.04 0.03 0.03 0.04 0.04 0.04 0.05 0.06 0.06 0.05 0.04 0.05 0.05 0.05 0.05 0.05 0.04 0.04 0.04 0.05 0.05 0.04 0.03 0.02 0.02 0.01 0.01
0.07 0.06 0.05 0.03 0.03 0.03 0.03 0.02 0.03 0.03 0.03 0.02 0.02 0.02 0.02 0.02 0.02 0.01 0.02 0.02 0.03 0.03 0.03 0.04 0.04 0.04 0.04 0.04 0.03 0.05 0.04 0.04 0.04 0.03 0.03 0.03 0.03 0.03 0.03 0.02 0.01 0.01 0.01
0.07 0.06 0.05 0.05 0.04 0.04 0.03 0.03 0.02 0.02 0.02 0.02 0.02 0.01 0.01 0.01 0.00 0.00 0.01 0.01 0.02 0.02 0.03 0.03 0.03 0.03 0.03 0.03 0.02 0.03 0.04 0.03 0.03 0.03 0.03 0.03 0.03 0.03 0.03 0.02 0.01 0.02 0.02
0.04 0.04 0.04 0.04 0.04 0.04 0.03 0.02 0.02 0.02 0.01 0.01 0.01 0.01 0.01 0.01 0.01 0.01 0.01 0.01 0.01 0.01 0.01 0.02 0.02 0.03 0.03 0.03 0.03 0.02 0.04 0.05 0.04 0.03 0.04 0.04 0.03 0.03 0.02 0.02 0.02 0.02 0.02
0.02 0.03 0.03 0.03 0.04 0.02 0.01 0.00 0.00 0.01 0.01 0.01 0.01 0.02 0.03 0.02 0.01 0.01 0.01 0.01 0.01 0.01 0.01 0.01 0.02 0.02 0.02 0.03 0.03 0.03 0.03 0.04 0.04 0.03 0.05 0.05 0.04 0.05 0.05 0.04 0.03 0.02 0.02
0.01 0.03 0.03 0.04 0.03 0.02 0.01 0.00 0.00 0.01 0.01 0.01 0.02 0.02 0.01 0.01 0.01 0.01 0.01 0.01 0.01 0.01 0.00 0.00 0.01 0.01 0.01 0.01 0.02 0.03 0.05 0.05 0.05 0.06 0.05 0.06 0.07 0.05 0.05 0.04 0.03 0.02 0.01
0.03 0.04 0.05 0.04 0.02 0.02 0.01 0.00 0.00 0.01 0.02 0.02 0.03 0.02 0.01 0.01 0.00 0.00 0.01 0.01 0.01 0.01 0.01 0.00 0.01 0.00 0.01 0.01 0.01 0.03 0.06 0.07 0.05 0.05 0.05 0.05 0.06 0.05 0.07 0.04 0.02 0.02 0.02
MSLP
998.37 998.72 999.10 999.52 999.99 1000.54 1001.17 1001.88 1002.67 1003.49 1004.30 1005.06 1005.75 1006.34 1006.85 1007.29 1007.69 1008.11 1008.55 1009.03 1009.54 1010.07 1010.60 1011.10 1011.55 1011.94 1012.29 1012.59 1012.87 1013.14 1013.41 1013.67 1013.92 1014.16 1014.37 1014.55 1014.71 1014.85 1014.97 1015.09 1015.23 1015.38 1015.56
999.59 999.76 999.97 1000.23 1000.57 1001.01 1001.57 1002.22 1002.97 1003.76 1004.55 1005.30 1005.97 1006.54 1007.02 1007.44 1007.83 1008.22 1008.63 1009.09 1009.59 1010.12 1010.64 1011.14 1011.59 1011.99 1012.33 1012.62 1012.89 1013.15 1013.39 1013.64 1013.88 1014.11 1014.32 1014.50 1014.65 1014.78 1014.89 1014.99 1015.10 1015.23 1015.38
1000.75 1000.81 1000.92 1001.09 1001.35 1001.72 1002.21 1002.82 1003.52 1004.26 1005.01 1005.71 1006.34 1006.87 1007.32 1007.71 1008.06 1008.43 1008.82 1009.26 1009.74 1010.25 1010.76 1011.25 1011.69 1012.08 1012.40 1012.68 1012.92 1013.15 1013.37 1013.59 1013.80 1014.01 1014.21 1014.38 1014.53 1014.65 1014.75 1014.85 1014.95 1015.06 1015.21
1001.78 1001.80 1001.87 1002.01 1002.24 1002.58 1003.04 1003.61 1004.25 1004.94 1005.62 1006.26 1006.83 1007.31 1007.71 1008.07 1008.39 1008.73 1009.10 1009.51 1009.97 1010.46 1010.94 1011.41 1011.83 1012.18 1012.47 1012.72 1012.92 1013.10 1013.28 1013.46 1013.64 1013.82 1013.99 1014.15 1014.28 1014.40 1014.50 1014.60 1014.71 1014.83 1014.98
1002.64 1002.69 1002.78 1002.95 1003.19 1003.54 1003.98 1004.51 1005.09 1005.71 1006.31 1006.88 1007.38 1007.80 1008.16 1008.48 1008.78 1009.10 1009.44 1009.83 1010.26 1010.70 1011.15 1011.57 1011.94 1012.24 1012.49 1012.68 1012.83 1012.96 1013.09 1013.21 1013.34 1013.48 1013.62 1013.76 1013.88 1013.99 1014.10 1014.21 1014.33 1014.47 1014.62
1003.36 1003.45 1003.61 1003.83 1004.12 1004.49 1004.92 1005.42 1005.94 1006.48 1007.00 1007.49 1007.92 1008.29 1008.61 1008.91 1009.19 1009.48 1009.81 1010.16 1010.54 1010.93 1011.31 1011.67 1011.97 1012.21 1012.39 1012.52 1012.61 1012.68 1012.75 1012.82 1012.90 1012.99 1013.09 1013.19 1013.29 1013.39 1013.50 1013.61 1013.75 1013.90 1014.07
1003.96 1004.12 1004.34 1004.62 1004.96 1005.35 1005.77 1006.23 1006.70 1007.16 1007.61 1008.01 1008.38 1008.71 1009.01 1009.28 1009.55 1009.83 1010.12 1010.43 1010.75 1011.07 1011.37 1011.63 1011.85 1012.01 1012.11 1012.18 1012.21 1012.23 1012.24 1012.26 1012.29 1012.33 1012.39 1012.45 1012.52 1012.60 1012.69 1012.80 1012.94 1013.10 1013.29
1004.49 1004.70 1004.97 1005.29 1005.66 1006.05 1006.46 1006.87 1007.28 1007.67 1008.05 1008.39 1008.71 1009.01 1009.29 1009.55 1009.81 1010.07 1010.32 1010.58 1010.82 1011.05 1011.24 1011.40 1011.52 1011.59 1011.62 1011.62 1011.60 1011.58 1011.55 1011.53 1011.52 1011.52 1011.53 1011.56 1011.59 1011.63 1011.70 1011.79 1011.91 1012.07 1012.27
1004.97 1005.19 1005.48 1005.82 1006.18 1006.56 1006.93 1007.30 1007.64 1007.97 1008.28 1008.58 1008.86 1009.14 1009.40 1009.66 1009.91 1010.13 1010.34 1010.52 1010.67 1010.79 1010.88 1010.92 1010.94 1010.92 1010.88 1010.83 1010.78 1010.73 1010.68 1010.64 1010.61 1010.58 1010.56 1010.55 1010.54 1010.55 1010.57 1010.63 1010.73 1010.87 1011.05
1005.40 1005.61 1005.89 1006.20 1006.53 1006.86 1007.19 1007.49 1007.77 1008.04 1008.30 1008.55 1008.81 1009.07 1009.33 1009.57 1009.79 1009.98 1010.13 1010.23 1010.28 1010.29 1010.25 1010.18 1010.10 1010.00 1009.91 1009.82 1009.75 1009.69 1009.65 1009.61 1009.58 1009.55 1009.51 1009.47 1009.43 1009.40 1009.39 1009.40 1009.46 1009.56 1009.72
1005.79 1005.96 1006.19 1006.45 1006.73 1007.00 1007.26 1007.50 1007.72 1007.93 1008.14 1008.36 1008.59 1008.82 1009.06 1009.28 1009.47 1009.61 1009.69 1009.70 1009.65 1009.54 1009.39 1009.22 1009.05 1008.88 1008.74 1008.64 1008.57 1008.52 1008.50 1008.49 1008.48 1008.46 1008.43 1008.38 1008.33 1008.27 1008.22 1008.20 1008.21 1008.26 1008.37
1006.13 1006.25 1006.42 1006.62 1006.83 1007.03 1007.23 1007.40 1007.55 1007.71 1007.86 1008.04 1008.23 1008.44 1008.64 1008.83 1008.98 1009.06 1009.07 1008.99 1008.84 1008.63 1008.38 1008.12 1007.87 1007.65 1007.48 1007.36 1007.30 1007.28 1007.29 1007.31 1007.34 1007.35 1007.34 1007.31 1007.26 1007.20 1007.13 1007.08 1007.05 1007.06 1007.12
1006.42 1006.50 1006.62 1006.76 1006.90 1007.05 1007.17 1007.27 1007.36 1007.45 1007.55 1007.68 1007.82 1007.98 1008.14 1008.28 1008.38 1008.40 1008.34 1008.19 1007.95 1007.66 1007.32 1006.99 1006.67 1006.41 1006.22 1006.09 1006.04 1006.04 1006.08 1006.14 1006.21 1006.26 1006.29 1006.29 1006.26 1006.21 1006.14 1006.08 1006.03 1006.00 1006.01
1006.71 1006.76 1006.84 1006.94 1007.03 1007.12 1007.18 1007.22 1007.25 1007.27 1007.30 1007.36 1007.44 1007.54 1007.65 1007.73 1007.77 1007.73 1007.61 1007.40 1007.10 1006.74 1006.35 1005.96 1005.60 1005.30 1005.08 1004.95 1004.89 1004.90 1004.96 1005.04 1005.14 1005.22 1005.28 1005.32 1005.32 1005.30 1005.26 1005.20 1005.14 1005.10 1005.07
1007.02 1007.07 1007.14 1007.21 1007.28 1007.32 1007.33 1007.32 1007.28 1007.23 1007.19 1007.17 1007.18 1007.21 1007.24 1007.27 1007.25 1007.16 1007.00 1006.74 1006.41 1006.01 1005.58 1005.16 1004.76 1004.44 1004.19 1004.03 1003.96 1003.95 1004.00 1004.08 1004.17 1004.26 1004.34 1004.40 1004.43 1004.44 1004.43 1004.40 1004.36 1004.31 1004.27
1007.40 1007.47 1007.54 1007.61 1007.67 1007.69 1007.66 1007.60 1007.50 1007.38 1007.26 1007.16 1007.09 1007.04 1007.01 1006.97 1006.91 1006.79 1006.59 1006.31 1005.96 1005.55 1005.11 1004.67 1004.25 1003.90 1003.62 1003.43 1003.31 1003.26 1003.26 1003.30 1003.36 1003.42 1003.47 1003.52 1003.56 1003.59 1003.61 1003.61 1003.60 1003.58 1003.55
1007.86 1007.95 1008.05 1008.14 1008.19 1008.20 1008.16 1008.05 1007.90 1007.71 1007.52 1007.35 1007.20 1007.08 1006.99 1006.90 1006.80 1006.65 1006.45 1006.17 1005.82 1005.41 1004.98 1004.53 1004.11 1003.73 1003.42 1003.18 1003.00 1002.88 1002.80 1002.76 1002.73 1002.71 1002.70 1002.70 1002.70 1002.71 1002.74 1002.76 1002.79 1002.82 1002.83
1008.38 1008.49 1008.62 1008.73 1008.79 1008.80 1008.74 1008.61 1008.42 1008.18 1007.93 1007.70 1007.49 1007.31 1007.17 1007.05 1006.92 1006.76 1006.56 1006.29 1005.95 1005.56 1005.14 1004.70 1004.28 1003.89 1003.54 1003.25 1003.01 1002.80 1002.62 1002.46 1002.31 1002.16 1002.03 1001.93 1001.85 1001.81 1001.81 1001.84 1001.91 1001.98 1002.06
1008.90 1009.03 1009.18 1009.30 1009.39 1009.40 1009.33 1009.19 1008.97 1008.70 1008.42 1008.14 1007.89 1007.68 1007.51 1007.36 1007.22 1007.06 1006.86 1006.60 1006.29 1005.92 1005.52 1005.10 1004.68 1004.28 1003.92 1003.58 1003.27 1002.98 1002.69 1002.39 1002.09 1001.79 1001.51 1001.25 1001.05 1000.92 1000.85 1000.87 1000.95 1001.08 1001.24
1009.37 1009.50 1009.66 1009.79 1009.88 1009.90 1009.84 1009.69 1009.46 1009.19 1008.89 1008.61 1008.34 1008.12 1007.94 1007.78 1007.64 1007.48 1007.28 1007.03 1006.73 1006.38 1006.00 1005.60 1005.20 1004.81 1004.43 1004.07 1003.72 1003.35 1002.96 1002.53 1002.08 1001.61 1001.15 1000.72 1000.36 1000.10 999.94 999.91 999.99 1000.16 1000.40
1009.74 1009.86 1010.01 1010.14 1010.23 1010.25 1010.19 1010.05 1009.84 1009.58 1009.29 1009.02 1008.77 1008.56 1008.38 1008.23 1008.09 1007.92 1007.72 1007.48 1007.18 1006.84 1006.47 1006.09 1005.71 1005.34 1004.97 1004.61 1004.23 1003.82 1003.36 1002.83 1002.25 1001.62 1000.99 1000.39 999.86 999.45 999.18 999.08 999.13 999.33 999.62
1010.02 1010.11 1010.23 1010.34 1010.42 1010.43 1010.38 1010.25 1010.06 1009.84 1009.59 1009.35 1009.14 1008.95 1008.80 1008.65 1008.51 1008.34 1008.13 1007.87 1007.56 1007.22 1006.85 1006.48 1006.12 1005.77 1005.44 1005.10 1004.73 1004.31 1003.81 1003.23 1002.55 1001.81 1001.03 1000.28 999.60 999.05 998.67 998.48 998.49 998.68 999.01
1010.24 1010.30 1010.38 1010.45 1010.50 1010.51 1010.45 1010.34 1010.18 1009.99 1009.80 1009.61 1009.44 1009.29 1009.15 1009.02 1008.87 1008.68 1008.45 1008.16 1007.83 1007.46 1007.08 1006.72 1006.37 1006.06 1005.76 1005.46 1005.13 1004.74 1004.26 1003.66 1002.94 1002.14 1001.28 1000.42 999.63 998.96 998.48 998.21 998.16 998.32 998.64
1010.50 1010.50 1010.53 1010.57 1010.59 1010.56 1010.50 1010.40 1010.27 1010.12 1009.97 1009.83 1009.70 1009.59 1009.47 1009.34 1009.18 1008.96 1008.69 1008.36 1007.98 1007.58 1007.18 1006.80 1006.46 1006.17 1005.91 1005.67 1005.40 1005.06 1004.63 1004.06 1003.37 1002.56 1001.68 1000.78 999.93 999.20 998.65 998.31 998.20 998.31 998.59
1010.87 1010.83 1010.81 1010.80 1010.77 1010.72 1010.64 1010.54 1010.42 1010.30 1010.18 1010.08 1009.98 1009.89 1009.78 1009.64 1009.46 1009.20 1008.88 1008.49 1008.06 1007.61 1007.17 1006.77 1006.42 1006.15 1005.92 1005.72 1005.51 1005.24 1004.88 1004.39 1003.77 1003.02 1002.17 1001.30 1000.46 999.71 999.13 998.75 998.59 998.63 998.83
1011.42 1011.34 1011.28 1011.22 1011.15 1011.06 1010.95 1010.84 1010.71 1010.60 1010.49 1010.40 1010.32 1010.23 1010.11 1009.95 1009.73 1009.42 1009.04 1008.60 1008.11 1007.60 1007.12 1006.68 1006.32 1006.03 1005.82 1005.65 1005.49 1005.29 1005.01 1004.61 1004.08 1003.43 1002.68 1001.88 1001.10 1000.40 999.83 999.43 999.24 999.21 999.33
Thickness
5764 5764 5762 5762 5763 5763 5762 5761 5762 5762 5762 5762 5762 5763 5763 5764 5764 5763 5762 5759 5757 5756 5755 5754 5753 5752 5752 5751 5751 5750 5749 5748 5746 5744 5742 5741 5739 5738 5736 5734 5732 5731 5729
5761 5761 5761 5761 5762 5762 5761 5760 5761 5761 5761 5761 5761 5762 5762 5762 5762 5761 5761 5760 5757 5756 5755 5753 5753 5752 5751 5751 5750 5749 5748 5747 5746 5744 5742 5740 5739 5737 5735 5734 5732 5730 5729
5759 5759 5759 5759 5760 5759 5759 5759 5759 5760 5760 5760 5760 5761 5761 5761 5761 5760 5761 5760 5758 5756 5754 5753 5752 5751 5751 5750 5749 5748 5747 5746 5745 5743 5741 5739 5738 5736 5735 5733 5731 5730 5728
5757 5757 5757 5757 5757 5758 5758 5757 5757 5758 5757 5757 5757 5759 5759 5759 5760 5759 5759 5758 5758 5757 5754 5752 5751 5750 5750 5748 5748 5747 5746 5745 5744 5742 5740 5738 5737 5735 5734 5732 5730 5729 5728
5756 5755 5755 5754 5754 5755 5755 5756 5756 5755 5754 5753 5755 5756 5757 5757 5758 5758 5757 5757 5756 5755 5754 5751 5749 5748 5747 5747 5746 5745 5744 5743 5741 5740 5739 5737 5736 5734 5733 5731 5730 5728 5727
5754 5754 5754 5752 5752 5753 5752 5752 5751 5751 5751 5752 5754 5754 5754 5755 5755 5755 5755 5755 5753 5753 5753 5751 5749 5747 5745 5744 5743 5742 5741 5739 5739 5738 5737 5736 5734 5733 5731 5730 5728 5727 5725
5752 5751 5752 5750 5750 5749 5748 5749 5749 5748 5748 5749 5748 5747 5750 5752 5752 5752 5752 5752 5751 5750 5749 5748 5747 5746 5744 5742 5740 5739 5738 5737 5736 5735 5735 5733 5732 5731 5729 5728 5727 5725 5723
5750 5751 5748 5749 5748 5746 5745 5745 5744 5744 5745 5746 5744 5742 5741 5743 5745 5749 5748 5747 5747 5747 5746 5746 5743 5742 5742 5742 5739 5737 5735 5734 5733 5732 5732 5730 5729 5728 5727 5726 5725 5724 5722
5748 5747 5746 5746 5745 5745 5743 5742 5741 5740 5739 5742 5742 5739 5737 5736 5739 5743 5742 5742 5741 5741 5742 5742 5741 5739 5738 5737 5736 5733 5732 5730 5730 5729 5728 5727 5726 5725 5724 5724 5723 5722 5721
5746 5745 5744 5743 5742 5743 5740 5740 5740 5739 5736 5736 5737 5737 5737 5736 5732 5732 5736 5737 5737 5736 5737 5738 5738 5736 5734 5733 5731 5729 5728 5727 5726 5725 5725 5724 5723 5722 5721 5721 5720 5719 5719
5743 5742 5741 5740 5739 5739 5737 5737 5735 5734 5734 5733 5732 5732 5731 5730 5730 5728 5725 5728 5731 5732 5732 5732 5733 5732 5731 5729 5727 5725 5723 5723 5722 5721 5721 5720 5719 5718 5717 5717 5717 5716 5716
5741 5739 5739 5737 5736 5736 5734 5733 5731 5730 5729 5728 5728 5728 5726 5725 5724 5724 5721 5721 5722 5725 5728 5729 5729 5728 5727 5726 5724 5720 5719 5718 5717 5717 5716 5715 5715 5714 5713 5713 5713 5713 5713
5738 5736 5736 5734 5733 5732 5731 5729 5728 5726 5725 5722 5722 5722 5722 5722 5722 5721 5719 5718 5718 5721 5721 5723 5724 5724 5723 5722 5719 5716 5715 5714 5713 5712 5711 5710 5710 5709 5709 5708 5708 5708 5708
5735 5734 5732 5730 5730 5728 5728 5726 5726 5723 5721 5719 5718 5717 5717 5718 5717 5716 5715 5713 5711 5714 5716 5717 5719 5718 5717 5716 5714 5711 5711 5709 5708 5707 5706 5706 5705 5705 5704 5704 5703 5703 5703
5733 5731 5729 5727 5726 5725 5723 5722 5721 5718 5717 5716 5715 5713 5713 5713 5713 5713 5712 5710 5706 5704 5707 5711 5711 5712 5710 5709 5707 5707 5706 5704 5703 5702 5701 5700 5700 5699 5699 5698 5698 5698 5698
5728 5727 5726 5724 5722 5721 5720 5718 5717 5715 5713 5712 5710 5708 5707 5709 5709 5709 5708 5707 5705 5702 5702 5706 5705 5705 5704 5704 5702 5701 5701 5699 5698 5697 5696 5695 5694 5693 5693 5693 5693 5693 5692
5725 5723 5721 5720 5718 5717 5716 5714 5713 5711 5709 5707 5706 5704 5703 5702 5703 5704 5704 5703 5702 5700 5697 5699 5700 5699 5696 5695 5695 5694 5695 5694 5694 5691 5690 5689 5688 5687 5687 5687 5687 5686 5686
5721 5719 5717 5715 5713 5712 5710 5709 5707 5706 5704 5702 5701 5699 5698 5699 5696 5697 5696 5696 5695 5694 5692 5688 5690 5691 5689 5689 5688 5687 5689 5689 5688 5686 5684 5683 5682 5681 5681 5681 5680 5680 5680
5716 5714 5712 5710 5708 5706 5705 5703 5702 5700 5699 5697 5696 5694 5693 5692 5690 5691 5688 5689 5689 5689 5687 5684 5684 5683 5682 5682 5680 5680 5682 5680 5681 5681 5678 5677 5676 5675 5674 5674 5674 5674 5674
5710 5708 5706 5705 5703 5701 5699 5698 5696 5694 5692 5691 5689 5688 5687 5686 5684 5683 5683 5681 5682 5680 5679 5678 5677 5676 5674 5674 5672 5672 5672 5672 5673 5674 5672 5671 5670 5669 5668 5668 5668 5667 5667
5707 5703 5700 5699 5698 5696 5693 5691 5690 5689 5686 5684 5683 5682 5681 5678 5676 5675 5676 5674 5674 5673 5672 5670 5668 5667 5666 5664 5663 5664 5663 5663 5664 5665 5665 5665 5665 5664 5663 5662 5661 5660 5659
5701 5698 5695 5693 5692 5691 5685 5682 5681 5682 5680 5678 5676 5675 5675 5673 5670 5667 5666 5664 5663 5663 5663 5660 5660 5658 5655 5655 5655 5655 5655 5655 5655 5657 5656 5657 5658 5658 5658 5657 5655 5654 5652
5696 5692 5690 5688 5685 5682 5678 5675 5674 5675 5674 5672 5670 5669 5670 5669 5664 5663 5661 5658 5656 5654 5651 5652 5652 5650 5649 5649 5648 5647 5646 5646 5646 5649 5647 5648 5650 5650 5650 5650 5648 5646 5645
5691 5688 5685 5683 5680 5677 5672 5669 5668 5669 5669 5666 5664 5662 5660 5658 5657 5654 5654 5653 5652 5650 5648 5647 5645 5644 5644 5642 5641 5640 5640 5640 5640 5641 5640 5639 5641 5641 5643 5642 5639 5639 5638
5686 5684 5681 5678 5675 5671 5666 5663 5661 5665 5664 5661 5659 5657 5654 5651 5647 5644 5645 5645 5644 5643 5641 5639 5637 5636 5634 5633 5632 5634 5633 5633 5633 5633 5633 5631 5632 5632 5633 5634 5632 5631 5631
5681 5679 5677 5674 5671 5667 5662 5658 5655 5661 5659 5657 5655 5652 5646 5643 5639 5636 5637 5637 5635 5635 5635 5634 5631 5630 5630 5629 5627 5626 5627 5626 5626 5625 5625 5623 5623 5622 5622 5625 5625 5624 5624